Wind_Speed
4 4 5 4 5 9 7 5 4 4 7 5 4 4 5 6 7 7 8 8 8 8 8 8 7 6 5 4 4 3 3 3 2 2 2 2 1 1 0 0 1 1 1 1 2 2 2 3 3
4 4 4 3 6 6 5 4 4 7 7 6 6 6 6 7 8 8 8 8 8 8 8 8 8 6 5 4 4 4 4 3 3 3 3 2 2 1 1 1 1 1 1 1 1 2 3 3 3
4 4 4 4 5 4 3 4 7 8 7 7 7 7 8 8 8 8 9 8 8 8 8 8 8 7 5 3 4 4 4 4 3 4 4 3 2 2 1 1 1 1 2 2 2 2 2 3 3
5 5 3 4 2 3 4 6 9 7 6 8 9 8 9 9 9 9 9 9 9 8 8 9 9 8 6 4 4 4 5 4 4 4 4 3 3 2 1 1 1 2 2 2 2 2 2 2 3
7 6 1 0 0 3 7 8 7 7 7 8 10 10 9 10 10 9 9 9 9 9 9 9 9 8 6 5 5 5 5 5 4 4 4 3 3 3 2 2 2 2 2 2 1 1 2 2 3
8 6 4 3 1 4 9 9 6 7 8 9 10 10 9 10 10 10 9 10 9 9 9 9 9 9 8 6 6 5 5 5 5 5 4 3 3 3 3 3 2 2 1 1 1 1 1 2 2
9 7 6 5 5 7 10 10 8 9 8 8 10 10 10 10 10 10 10 10 9 9 9 10 10 9 8 7 6 6 6 6 6 5 5 3 3 3 3 2 2 2 2 1 2 2 2 2 2
11 9 7 7 6 7 9 10 11 10 9 9 11 12 10 10 10 10 10 10 9 9 9 9 9 9 8 8 7 7 6 6 6 5 4 4 4 3 3 3 2 2 1 2 3 3 2 2 3
10 10 8 7 6 7 9 11 11 11 10 10 11 11 10 11 10 10 9 10 9 10 10 10 9 9 9 8 8 7 7 7 6 6 5 4 4 4 4 3 3 3 2 2 3 3 3 3 4
12 12 10 9 9 10 11 12 12 12 12 10 11 11 11 11 11 10 9 10 10 10 10 10 10 10 9 9 8 8 7 7 6 6 5 4 4 4 4 4 3 3 2 2 3 3 3 4 4
14 14 13 14 14 14 13 13 12 12 13 13 12 12 12 12 11 10 10 10 10 11 10 10 10 10 10 10 10 8 8 7 6 6 6 5 5 5 4 4 4 4 3 3 3 3 3 4 5
15 16 16 16 17 16 15 15 14 14 15 15 13 13 13 13 11 11 10 10 10 11 11 11 11 10 10 11 10 9 8 7 6 6 6 6 6 6 5 4 4 4 3 3 3 3 3 4 4
16 17 17 17 18 17 17 18 16 16 16 15 14 14 15 13 12 11 11 11 11 11 10 11 11 11 11 11 11 10 9 8 7 6 7 7 7 6 6 6 4 4 4 4 4 4 4 5 5
15 17 19 18 18 17 17 17 18 17 17 16 15 15 15 14 12 12 11 12 12 11 11 11 11 11 11 11 11 10 9 9 9 8 7 7 7 7 6 7 6 5 5 5 5 5 5 5 6
17 19 19 18 19 18 18 18 17 18 18 17 17 17 16 15 15 14 13 13 13 12 12 12 12 12 12 12 11 11 10 10 9 8 8 8 7 7 7 7 7 7 6 6 6 6 6 6 6
18 19 20 18 18 18 19 20 19 19 19 19 18 17 17 16 15 15 15 14 14 14 14 13 13 12 12 12 11 11 10 10 10 9 8 8 8 8 8 7 7 8 7 7 7 7 7 7 8
18 20 20 19 18 19 20 21 20 19 20 21 20 18 17 17 17 16 16 15 15 14 15 14 14 14 13 12 12 12 11 11 11 11 9 9 9 9 9 8 8 8 8 7 7 8 8 8 8
17 18 20 20 17 18 19 22 21 20 21 22 21 20 20 18 18 17 17 16 16 16 15 15 15 15 14 13 13 12 12 12 12 12 11 11 10 10 11 10 10 9 8 8 8 8 8 9 9
20 20 21 20 19 19 21 22 22 21 22 24 23 22 21 20 19 18 18 18 18 17 16 16 16 16 15 14 13 13 13 13 13 13 12 11 11 12 12 11 10 9 9 9 9 10 9 9 9
22 22 20 20 20 21 22 23 21 22 22 24 24 23 22 22 21 20 19 19 19 18 18 18 18 17 16 15 14 13 13 14 14 13 13 12 12 12 12 12 10 10 10 10 10 10 10 10 10
23 24 21 20 22 24 24 25 24 24 23 25 26 24 23 23 22 21 21 21 19 19 19 19 19 18 17 17 16 15 16 16 15 15 14 13 13 13 13 12 12 11 11 11 11 11 11 11 11
24 23 22 22 23 24 22 24 24 26 26 27 26 25 24 24 23 22 22 22 22 20 19 19 20 19 19 19 18 17 17 16 16 16 16 15 14 14 14 14 13 12 11 11 11 11 12 12 12
25 22 23 24 25 25 24 25 24 26 29 30 27 25 25 26 25 24 22 23 22 22 21 20 20 21 20 20 20 19 18 18 18 18 17 17 16 15 15 14 14 13 12 12 12 12 13 13 13
25 24 23 23 24 28 25 26 27 28 29 30 28 25 26 26 27 25 23 23 24 23 22 22 22 22 22 21 20 20 19 20 20 19 18 17 17 16 16 15 15 14 13 13 13 13 14 14 14
23 22 22 23 24 26 24 26 29 28 29 29 28 26 27 27 28 27 25 24 25 24 24 23 22 22 22 22 21 21 20 21 21 20 19 18 18 17 17 17 16 16 15 14 14 14 14 15 15
23 23 23 23 23 23 23 26 26 27 28 29 29 28 28 27 27 28 27 26 26 25 25 24 24 23 23 22 21 20 20 21 21 20 20 20 19 19 18 17 17 17 16 15 15 15 15 16 16
24 24 24 24 24 24 25 26 28 29 29 30 30 30 30 28 28 27 27 27 27 25 25 25 24 24 23 23 22 22 21 21 21 21 21 21 21 20 19 19 19 19 18 17 17 17 17 17 18
25 24 24 26 27 27 26 27 30 31 32 32 32 32 30 29 28 28 28 27 28 27 26 26 25 24 24 24 24 23 22 22 22 22 22 21 21 21 21 21 20 20 20 19 19 19 20 20 19
24 25 26 27 27 27 26 27 29 30 31 31 31 30 31 30 29 29 29 28 29 30 28 28 27 26 25 25 25 24 23 23 23 23 23 22 22 22 21 22 22 22 21 21 21 21 21 21 21
23 24 26 28 29 28 28 30 30 31 32 31 30 31 31 30 30 30 30 31 31 31 30 29 28 27 27 27 27 26 25 24 24 23 23 23 23 23 24 24 24 23 23 23 23 23 22 22 22
Wind_Direction
119 112 104 93 74 63 61 35 351 325 309 326 329 326 327 334 334 338 343 347 354 356 358 356 352 347 346 347 344 343 347 342 334 329 334 333 325 299 285 286 249 257 277 257 195 163 197 202 198
136 130 121 96 67 53 39 360 320 311 313 327 328 330 329 337 335 336 343 348 354 356 358 355 351 344 338 336 339 334 338 339 332 329 329 323 315 307 285 279 265 275 276 239 214 204 190 194 208
155 151 141 89 55 32 29 318 308 313 317 329 322 328 333 336 336 340 347 350 352 354 359 356 354 354 348 348 341 335 336 339 336 329 322 320 316 320 289 270 284 283 274 247 225 212 206 201 216
170 174 154 84 42 351 314 297 302 305 320 325 323 327 330 334 337 342 347 349 350 353 358 357 0 2 2 1 350 343 339 337 336 331 328 323 310 302 291 285 274 266 279 262 238 235 249 252 249
181 179 144 303 193 294 290 292 302 305 318 312 318 326 328 334 334 338 343 345 348 353 356 356 359 3 1 355 352 351 348 343 337 330 329 317 300 290 288 268 259 256 273 274 246 284 279 283 277
191 179 211 216 249 277 282 288 293 296 294 304 313 322 327 331 334 338 343 344 350 353 355 354 353 353 350 350 349 346 343 341 344 337 331 319 295 281 280 264 262 261 284 274 273 301 329 317 301
204 205 221 219 226 251 267 274 276 286 295 299 306 314 319 326 334 338 342 343 346 351 352 353 350 347 350 352 347 344 343 343 340 339 336 320 294 278 275 274 284 288 278 258 259 262 303 311 306
211 208 215 221 229 257 267 272 273 285 298 305 305 305 317 321 327 332 337 343 346 348 350 352 351 347 347 347 345 342 346 343 338 336 331 321 306 298 283 277 281 271 257 275 268 274 289 299 296
217 218 219 223 225 255 267 270 272 276 279 288 292 299 313 314 318 323 330 336 340 341 345 350 349 344 344 344 341 340 340 338 337 338 336 326 313 303 301 287 291 284 285 286 274 272 277 288 295
221 226 226 228 230 243 257 263 265 272 276 279 280 289 300 306 311 316 321 327 331 334 337 343 345 341 339 340 340 336 338 342 338 333 337 332 319 312 303 297 286 285 270 274 279 276 264 271 285
229 233 234 234 237 235 241 253 261 268 270 271 277 286 292 300 307 311 315 320 325 328 331 335 339 338 335 333 335 334 335 336 335 336 338 332 320 309 300 297 284 273 265 277 283 280 272 272 278
238 239 239 238 244 244 243 247 255 259 266 272 273 281 288 288 294 303 307 313 318 320 321 325 331 333 334 333 333 334 332 331 329 335 338 333 329 318 309 300 287 283 270 265 265 269 264 278 289
240 245 250 248 252 251 249 250 253 258 265 270 274 281 285 286 290 293 299 305 311 312 312 315 320 326 330 331 332 332 332 331 330 333 338 335 328 320 312 311 301 293 282 269 266 264 267 275 286
240 246 249 250 252 254 257 257 254 258 264 270 272 274 280 284 285 287 290 296 303 305 304 308 314 319 321 323 323 325 326 326 328 329 332 333 331 322 320 317 312 307 293 273 272 272 273 277 284
241 247 253 256 256 258 260 260 257 261 265 269 270 269 273 277 278 281 284 288 295 297 297 301 306 309 313 313 314 316 319 321 322 323 324 325 326 324 322 318 313 311 305 287 280 280 277 281 283
246 252 252 256 265 263 261 262 261 261 266 266 266 268 272 274 278 280 283 286 288 288 289 294 298 302 304 306 306 309 314 317 319 319 317 317 317 317 317 315 311 310 308 295 290 290 290 289 287
247 255 259 257 260 263 263 264 261 264 264 263 263 263 268 274 277 278 280 281 283 282 283 287 292 295 297 299 300 302 305 310 315 316 312 309 309 310 310 312 309 308 303 296 293 293 292 293 293
250 256 260 260 256 260 262 264 263 263 264 263 264 265 266 270 274 275 277 278 278 279 280 280 285 287 289 291 294 294 298 302 306 309 308 304 303 303 304 302 301 298 299 295 293 294 292 293 297
244 250 255 259 254 253 255 258 257 260 262 261 261 265 266 267 270 272 274 275 276 277 276 278 279 283 283 285 290 291 294 297 301 304 304 301 301 299 301 299 299 298 295 290 291 293 292 295 297
247 247 245 249 252 250 254 256 258 259 260 265 265 263 262 265 268 269 271 271 272 273 273 275 276 278 278 278 282 288 291 293 297 301 302 300 301 301 301 297 292 293 291 289 290 289 288 293 296
248 250 248 250 254 255 256 258 258 260 262 264 266 266 262 263 264 267 268 271 270 269 270 271 275 276 274 275 278 285 289 291 294 297 297 299 300 297 298 298 292 292 289 288 287 287 287 290 293
247 249 250 249 251 257 255 258 259 258 266 266 264 263 263 264 264 265 266 267 269 270 268 267 271 272 271 273 275 280 286 288 290 292 293 294 296 296 293 295 295 291 293 292 289 286 285 286 287
246 247 251 250 250 252 254 258 260 259 264 263 262 262 263 264 267 266 263 265 266 267 269 268 270 269 269 272 274 276 280 285 287 289 291 292 293 295 292 291 294 294 294 296 293 289 285 286 286
249 245 248 251 253 255 253 255 258 257 259 263 261 260 259 262 265 266 264 266 266 266 267 268 269 269 268 270 273 273 277 281 283 285 287 288 290 293 294 292 288 287 291 293 293 290 286 285 286
251 249 252 253 254 258 259 259 260 257 256 258 261 260 259 261 263 265 263 264 265 265 266 265 267 268 269 269 271 271 274 279 280 281 283 284 286 289 290 289 287 285 287 289 289 289 287 283 283
248 246 247 251 255 259 259 260 261 263 262 261 260 260 260 260 263 264 263 262 262 263 263 265 264 265 267 269 270 270 274 277 278 279 280 280 282 284 286 286 286 286 286 285 285 286 286 283 281
249 246 246 249 252 257 256 254 253 254 257 260 262 263 263 260 263 263 261 261 261 260 262 264 263 262 264 266 270 272 272 276 278 280 278 279 279 281 283 283 284 285 284 283 282 283 284 283 280
251 253 250 246 251 257 259 259 258 256 258 259 261 264 264 265 264 261 259 259 260 259 259 260 261 260 261 265 269 272 272 275 276 279 279 278 279 280 282 282 283 283 281 282 283 283 281 281 280
253 249 248 249 250 254 259 259 256 255 258 259 260 262 264 263 262 261 259 257 259 258 257 258 259 258 260 262 265 269 271 273 274 275 276 276 277 279 280 280 281 281 281 280 281 281 280 281 281
253 251 249 250 251 250 254 260 258 258 257 257 258 261 262 261 261 260 259 258 258 256 255 257 258 258 260 262 263 265 268 270 272 273 274 274 275 278 280 280 280 280 281 281 280 280 279 280 280
Height
5901 5901 5902 5902 5902 5901 5902 5903 5903 5901 5900 5899 5898 5897 5895 5895 5894 5894 5890 5888 5887 5885 5884 5883 5881 5880 5879 5879 5878 5877 5876 5876 5875 5874 5874 5873 5873 5873 5872 5872 5872 5871 5871 5871 5871 5871 5871 5872 5872
5901 5902 5903 5902 5901 5902 5903 5904 5903 5901 5900 5899 5898 5897 5895 5894 5893 5891 5889 5888 5887 5885 5884 5883 5881 5879 5878 5878 5878 5877 5877 5876 5875 5875 5874 5873 5873 5873 5873 5872 5872 5872 5871 5871 5871 5871 5871 5872 5872
5901 5902 5903 5902 5902 5903 5904 5904 5903 5901 5900 5899 5898 5897 5895 5894 5893 5891 5889 5888 5887 5885 5884 5883 5881 5878 5876 5877 5878 5877 5877 5876 5875 5875 5874 5873 5873 5873 5873 5873 5872 5872 5872 5871 5871 5871 5871 5872 5872
5901 5902 5902 5902 5903 5905 5905 5904 5903 5901 5900 5899 5898 5896 5895 5894 5893 5891 5889 5888 5887 5886 5884 5883 5881 5879 5878 5878 5878 5877 5877 5876 5875 5875 5874 5873 5873 5873 5873 5872 5872 5872 5872 5871 5871 5871 5871 5871 5872
5900 5901 5901 5901 5904 5905 5905 5904 5903 5901 5900 5899 5897 5896 5894 5894 5893 5891 5889 5888 5887 5886 5884 5883 5882 5881 5880 5879 5879 5878 5877 5876 5875 5875 5874 5873 5873 5872 5872 5872 5872 5872 5871 5871 5871 5871 5871 5871 5871
5899 5899 5901 5901 5904 5907 5906 5904 5903 5902 5900 5899 5896 5895 5894 5894 5893 5891 5889 5888 5887 5886 5885 5884 5882 5881 5880 5880 5879 5878 5877 5876 5876 5875 5874 5873 5873 5872 5872 5871 5871 5871 5871 5871 5871 5871 5871 5871 5871
5898 5897 5898 5902 5904 5905 5905 5903 5902 5900 5898 5898 5896 5895 5894 5893 5892 5891 5889 5888 5887 5886 5885 5884 5883 5882 5881 5880 5879 5878 5877 5877 5876 5875 5874 5873 5872 5872 5871 5871 5871 5871 5871 5871 5871 5871 5871 5871 5871
5895 5897 5898 5900 5902 5903 5903 5902 5901 5900 5898 5898 5897 5894 5894 5893 5892 5891 5889 5888 5887 5886 5885 5884 5883 5882 5881 5880 5879 5878 5878 5877 5876 5874 5874 5873 5872 5871 5871 5871 5870 5870 5870 5870 5870 5870 5870 5871 5871
5894 5896 5896 5898 5901 5902 5902 5901 5900 5899 5898 5897 5896 5894 5893 5893 5892 5891 5889 5888 5887 5886 5885 5884 5883 5882 5881 5880 5879 5878 5877 5876 5875 5874 5873 5872 5872 5871 5871 5870 5870 5870 5870 5870 5870 5870 5870 5870 5870
5892 5894 5896 5897 5899 5899 5900 5899 5898 5897 5897 5896 5894 5893 5892 5892 5891 5890 5889 5888 5887 5886 5885 5884 5883 5882 5881 5880 5879 5878 5877 5876 5875 5874 5873 5872 5871 5871 5870 5870 5869 5869 5869 5869 5869 5869 5870 5870 5870
5889 5891 5893 5894 5895 5895 5896 5897 5896 5896 5895 5894 5893 5892 5892 5891 5890 5889 5888 5887 5886 5885 5884 5884 5883 5882 5881 5880 5879 5878 5877 5876 5875 5874 5872 5871 5871 5870 5869 5869 5869 5868 5868 5869 5869 5869 5869 5869 5869
5887 5888 5890 5891 5892 5892 5893 5893 5894 5893 5893 5892 5891 5890 5890 5890 5889 5888 5887 5886 5886 5885 5884 5883 5882 5882 5881 5880 5879 5878 5877 5876 5875 5873 5872 5871 5870 5869 5869 5868 5868 5868 5868 5868 5868 5868 5869 5869 5868
5884 5886 5886 5888 5888 5889 5890 5890 5890 5890 5890 5889 5889 5889 5888 5888 5887 5886 5886 5885 5885 5884 5883 5883 5882 5881 5880 5879 5878 5877 5876 5875 5874 5873 5872 5871 5870 5869 5868 5868 5868 5867 5868 5868 5868 5868 5868 5868 5867
5881 5882 5883 5884 5885 5886 5887 5887 5887 5888 5887 5886 5887 5887 5886 5886 5885 5885 5884 5884 5884 5883 5882 5882 5881 5880 5880 5879 5878 5877 5876 5875 5874 5873 5872 5870 5869 5869 5868 5867 5867 5867 5867 5867 5867 5867 5867 5867 5867
5877 5878 5879 5880 5881 5881 5883 5883 5884 5885 5884 5884 5885 5885 5884 5884 5883 5883 5882 5883 5882 5882 5881 5881 5880 5879 5879 5878 5877 5876 5875 5874 5873 5872 5871 5870 5869 5868 5868 5867 5866 5866 5866 5866 5866 5866 5866 5866 5866
5873 5874 5875 5877 5877 5878 5880 5880 5880 5880 5881 5881 5882 5881 5881 5880 5880 5881 5880 5881 5880 5880 5880 5879 5879 5878 5877 5877 5876 5875 5875 5874 5873 5872 5871 5869 5868 5868 5867 5866 5866 5865 5865 5865 5865 5865 5865 5865 5865
5869 5871 5872 5874 5875 5876 5876 5876 5876 5876 5877 5877 5877 5878 5878 5878 5878 5878 5878 5878 5878 5878 5878 5877 5877 5876 5876 5875 5874 5874 5874 5873 5872 5871 5870 5869 5868 5867 5866 5865 5864 5864 5864 5864 5864 5864 5864 5863 5863
5867 5868 5870 5871 5871 5873 5872 5872 5872 5872 5873 5873 5873 5874 5875 5876 5876 5875 5875 5875 5875 5875 5875 5875 5875 5874 5874 5873 5873 5873 5872 5871 5871 5870 5868 5867 5866 5865 5865 5864 5863 5862 5862 5862 5862 5862 5862 5862 5862
5863 5865 5866 5867 5868 5868 5868 5869 5868 5869 5870 5869 5869 5870 5871 5871 5872 5872 5872 5871 5871 5872 5872 5872 5872 5872 5872 5871 5871 5871 5870 5870 5869 5868 5867 5866 5865 5864 5863 5862 5862 5861 5861 5861 5861 5861 5860 5860 5860
5857 5858 5861 5863 5864 5864 5864 5864 5863 5864 5865 5865 5865 5866 5867 5867 5867 5867 5868 5867 5867 5868 5869 5869 5869 5869 5869 5869 5869 5868 5868 5867 5867 5866 5865 5864 5863 5862 5862 5861 5860 5860 5859 5859 5859 5859 5858 5858 5858
5852 5854 5856 5858 5859 5859 5860 5859 5859 5859 5860 5860 5860 5861 5862 5862 5863 5863 5863 5863 5862 5864 5864 5865 5865 5865 5866 5866 5866 5866 5865 5865 5864 5864 5863 5862 5861 5860 5860 5859 5859 5858 5857 5857 5857 5856 5856 5856 5856
5846 5848 5850 5852 5853 5853 5854 5854 5855 5854 5855 5855 5855 5856 5857 5857 5858 5859 5859 5859 5859 5860 5860 5860 5861 5861 5862 5863 5863 5863 5863 5862 5862 5861 5860 5860 5859 5858 5858 5857 5856 5856 5855 5854 5854 5854 5854 5853 5853
5840 5843 5844 5845 5846 5846 5848 5849 5850 5850 5849 5848 5849 5851 5852 5852 5852 5853 5854 5854 5855 5856 5857 5857 5857 5857 5858 5859 5859 5859 5859 5859 5858 5858 5857 5857 5856 5855 5855 5854 5854 5853 5852 5852 5851 5851 5851 5851 5850
5834 5835 5836 5837 5839 5839 5841 5843 5844 5843 5843 5843 5843 5845 5846 5846 5847 5848 5849 5849 5850 5851 5852 5853 5853 5853 5853 5854 5854 5855 5855 5855 5855 5854 5854 5853 5852 5852 5852 5851 5851 5850 5850 5849 5848 5848 5847 5847 5847
5828 5829 5831 5832 5832 5833 5836 5836 5836 5836 5837 5837 5838 5839 5839 5840 5840 5842 5844 5844 5844 5845 5846 5847 5848 5848 5849 5849 5850 5850 5850 5850 5850 5850 5850 5849 5849 5849 5848 5848 5847 5846 5846 5846 5845 5844 5844 5843 5843
5821 5823 5826 5827 5828 5830 5832 5830 5831 5831 5830 5831 5830 5831 5832 5833 5834 5836 5837 5838 5839 5840 5841 5842 5843 5843 5844 5845 5845 5845 5846 5845 5846 5845 5845 5845 5845 5844 5844 5843 5843 5843 5842 5842 5841 5841 5840 5839 5839
5814 5816 5819 5821 5821 5823 5823 5823 5823 5822 5823 5824 5824 5825 5825 5826 5827 5829 5831 5831 5832 5834 5835 5836 5837 5838 5839 5840 5841 5841 5841 5841 5841 5841 5841 5840 5840 5840 5839 5839 5839 5838 5838 5838 5837 5836 5836 5835 5835
5808 5810 5812 5813 5814 5815 5817 5816 5816 5816 5817 5817 5817 5817 5819 5820 5821 5822 5824 5825 5825 5827 5828 5830 5831 5832 5833 5834 5835 5835 5836 5836 5836 5836 5836 5835 5835 5835 5835 5835 5834 5834 5833 5833 5832 5832 5831 5831 5830
5802 5804 5804 5806 5807 5809 5809 5811 5808 5808 5808 5809 5810 5810 5811 5812 5813 5815 5816 5818 5818 5819 5821 5823 5825 5826 5827 5828 5829 5830 5830 5830 5830 5830 5830 5830 5830 5830 5830 5829 5829 5828 5828 5827 5827 5826 5826 5825 5824
5794 5796 5797 5798 5799 5800 5801 5803 5799 5799 5800 5800 5801 5803 5803 5804 5805 5807 5808 5809 5811 5812 5813 5816 5818 5819 5821 5823 5823 5824 5824 5825 5825 5825 5825 5825 5825 5824 5824 5824 5823 5823 5822 5822 5821 5820 5820 5819 5819